HARAY LDRI-LIPB

Flight info

Callsign HARAY
Flight time 0h 45m
Altitude 20000
Route NAKIT L615 ROTAR DCT NAXAV
Aircraft B350/L-V/N

Departure

Time 2026-05-09 08:37
Airport Rijeka Airport (LDRI)

Arrival

Time 2026-05-09 09:23
Airport Bolzano Airport (LIPB)
Time Latitude Longitude Altitude Speed Heading
2026-05-09 08:19 45.21813 14.57140 284 ft 0 kts 59°
2026-05-09 08:30 45.21814 14.57141 284 ft 2 kts 58°
2026-05-09 08:30 45.21821 14.57171 284 ft 3 kts 114°
2026-05-09 08:31 45.21792 14.57201 283 ft 2 kts 152°
2026-05-09 08:31 45.21778 14.57212 282 ft 2 kts 160°
2026-05-09 08:31 45.21764 14.57214 282 ft 2 kts 185°
2026-05-09 08:31 45.21735 14.57213 281 ft 5 kts 181°
2026-05-09 08:32 45.21704 14.57210 281 ft 1 kts 180°
2026-05-09 08:32 45.21681 14.57211 280 ft 5 kts 180°
2026-05-09 08:32 45.21619 14.57209 280 ft 2 kts 186°
2026-05-09 08:33 45.21572 14.57207 281 ft 11 kts 172°
2026-05-09 08:33 45.21495 14.57254 279 ft 11 kts 147°
2026-05-09 08:33 45.21426 14.57327 277 ft 14 kts 143°
2026-05-09 08:33 45.21349 14.57409 274 ft 12 kts 151°
2026-05-09 08:34 45.21282 14.57476 272 ft 11 kts 143°
2026-05-09 08:34 45.21179 14.57582 268 ft 22 kts 144°
2026-05-09 08:34 45.21064 14.57702 263 ft 18 kts 144°
2026-05-09 08:34 45.20940 14.57830 255 ft 21 kts 143°
2026-05-09 08:35 45.20860 14.57915 250 ft 8 kts 146°
2026-05-09 08:35 45.20799 14.57956 248 ft 8 kts 170°
2026-05-09 08:35 45.20753 14.57990 246 ft 9 kts 90°
2026-05-09 08:35 45.20789 14.57989 246 ft 0 kts 321°
2026-05-09 08:37 45.20806 14.57971 247 ft 22 kts 323°
2026-05-09 08:37 45.21247 14.57518 271 ft 127 kts 324°
2026-05-09 08:37 45.22117 14.56635 540 ft 168 kts 323°
2026-05-09 08:37 45.23045 14.55679 1320 ft 164 kts 324°
2026-05-09 08:38 45.24007 14.54725 1763 ft 182 kts 326°
2026-05-09 08:38 45.25115 14.53622 2065 ft 204 kts 326°
2026-05-09 08:38 45.26351 14.52336 2085 ft 233 kts 324°
2026-05-09 08:38 45.27679 14.51001 2513 ft 237 kts 326°
2026-05-09 08:39 45.29008 14.49590 2925 ft 241 kts 317°
2026-05-09 08:39 45.29678 14.47444 3457 ft 240 kts 273°
2026-05-09 08:39 45.29054 14.45192 4405 ft 221 kts 224°
2026-05-09 08:39 45.27567 14.44158 5268 ft 208 kts 198°
2026-05-09 08:40 45.26088 14.43788 5885 ft 206 kts 185°
2026-05-09 08:40 45.24495 14.43703 6436 ft 209 kts 180°
2026-05-09 08:40 45.22982 14.43718 6907 ft 213 kts 183°
2026-05-09 08:40 45.21552 14.42774 7360 ft 215 kts 231°
2026-05-09 08:41 45.20808 14.40872 7820 ft 215 kts 251°
2026-05-09 08:41 45.20513 14.38771 8323 ft 212 kts 268°
2026-05-09 08:41 45.20492 14.36739 8922 ft 205 kts 273°
2026-05-09 08:41 45.20552 14.34698 9487 ft 200 kts 274°
2026-05-09 08:42 45.20635 14.32750 9979 ft 203 kts 275°
2026-05-09 08:42 45.20729 14.30716 10631 ft 208 kts 275°
2026-05-09 08:42 45.20826 14.28684 11322 ft 206 kts 275°
2026-05-09 08:42 45.20921 14.26673 12007 ft 205 kts 275°
2026-05-09 08:43 45.21016 14.24682 12635 ft 205 kts 275°
2026-05-09 08:43 45.21112 14.22671 13222 ft 206 kts 275°
2026-05-09 08:43 45.21207 14.20662 13811 ft 206 kts 275°
2026-05-09 08:43 45.21302 14.18648 14413 ft 205 kts 275°
2026-05-09 08:44 45.21395 14.16652 14981 ft 204 kts 275°
2026-05-09 08:44 45.21489 14.14658 15506 ft 205 kts 275°
2026-05-09 08:44 45.21583 14.12638 16012 ft 206 kts 275°
2026-05-09 08:44 45.21676 14.10619 16495 ft 208 kts 275°
2026-05-09 08:45 45.21771 14.08562 16977 ft 209 kts 275°
2026-05-09 08:45 45.21865 14.06525 17446 ft 209 kts 275°
2026-05-09 08:45 45.21959 14.04487 17890 ft 211 kts 275°
2026-05-09 08:45 45.22053 14.02415 18381 ft 209 kts 275°
2026-05-09 08:46 45.22146 14.00382 18889 ft 206 kts 275°
2026-05-09 08:46 45.22238 13.98356 19383 ft 207 kts 275°
2026-05-09 08:46 45.22330 13.96314 19900 ft 208 kts 275°
2026-05-09 08:46 45.22425 13.94192 20064 ft 225 kts 275°
2026-05-09 08:47 45.22529 13.91890 20089 ft 245 kts 275°
2026-05-09 08:47 45.22641 13.89383 20090 ft 264 kts 274°
2026-05-09 08:47 45.22758 13.86717 20103 ft 280 kts 274°
2026-05-09 08:47 45.22883 13.83881 20093 ft 294 kts 274°
2026-05-09 08:48 45.23011 13.80939 20084 ft 304 kts 274°
2026-05-09 08:48 45.23142 13.77930 20085 ft 310 kts 274°
2026-05-09 08:48 45.23275 13.74852 20078 ft 313 kts 274°
2026-05-09 08:48 45.23409 13.71740 20077 ft 316 kts 274°
2026-05-09 08:49 45.23556 13.68301 20076 ft 318 kts 274°
2026-05-09 08:49 45.23694 13.65056 20069 ft 320 kts 274°
2026-05-09 08:49 45.23828 13.61869 20071 ft 321 kts 274°
2026-05-09 08:49 45.23962 13.58669 20077 ft 321 kts 274°
2026-05-09 08:50 45.24094 13.55502 20068 ft 322 kts 274°
2026-05-09 08:50 45.24226 13.52294 20078 ft 322 kts 274°
2026-05-09 08:50 45.24356 13.49118 20072 ft 322 kts 274°
2026-05-09 08:50 45.24486 13.45946 20078 ft 321 kts 274°
2026-05-09 08:51 45.24615 13.42756 20071 ft 320 kts 274°
2026-05-09 08:51 45.24741 13.39630 20056 ft 318 kts 274°
2026-05-09 08:51 45.24867 13.36479 20073 ft 316 kts 274°
2026-05-09 08:51 45.24991 13.33331 20064 ft 316 kts 273°
2026-05-09 08:52 45.25156 13.29141 20068 ft 316 kts 273°
2026-05-09 08:52 45.25238 13.27025 20071 ft 316 kts 273°
2026-05-09 08:52 45.25355 13.24020 20061 ft 315 kts 273°
2026-05-09 08:52 45.25479 13.20799 20060 ft 315 kts 273°
2026-05-09 08:53 45.25599 13.17676 20067 ft 315 kts 273°
2026-05-09 08:53 45.25716 13.14583 20071 ft 315 kts 273°
2026-05-09 08:53 45.25835 13.11444 20063 ft 315 kts 273°
2026-05-09 08:53 45.25951 13.08340 20069 ft 315 kts 273°
2026-05-09 08:54 45.26068 13.05190 20067 ft 315 kts 273°
2026-05-09 08:54 45.26182 13.02098 20064 ft 315 kts 273°
2026-05-09 08:54 45.26453 12.99012 20014 ft 316 kts 287°
2026-05-09 08:54 45.27269 12.96146 20166 ft 311 kts 291°
2026-05-09 08:55 45.28117 12.93237 20067 ft 314 kts 291°
2026-05-09 08:55 45.28947 12.90383 20059 ft 315 kts 291°
2026-05-09 08:55 45.29788 12.87486 20063 ft 315 kts 291°
2026-05-09 08:55 45.30622 12.84613 20065 ft 314 kts 291°
2026-05-09 08:56 45.31460 12.81718 20059 ft 314 kts 291°
2026-05-09 08:56 45.32291 12.78846 20051 ft 314 kts 291°
2026-05-09 08:56 45.33122 12.75970 20060 ft 314 kts 291°
2026-05-09 08:56 45.33946 12.73115 20062 ft 314 kts 291°
2026-05-09 08:57 45.34785 12.70205 20067 ft 314 kts 291°
2026-05-09 08:57 45.35604 12.67362 20062 ft 314 kts 291°
2026-05-09 08:57 45.36440 12.64456 20064 ft 314 kts 291°
2026-05-09 08:57 45.37293 12.61485 20046 ft 314 kts 291°
2026-05-09 08:58 45.38117 12.58615 19787 ft 311 kts 291°
2026-05-09 08:58 45.38950 12.55709 19512 ft 307 kts 291°
2026-05-09 08:58 45.39781 12.52807 19235 ft 303 kts 291°
2026-05-09 08:58 45.40612 12.49903 18970 ft 300 kts 291°
2026-05-09 08:59 45.41420 12.47073 18698 ft 298 kts 291°
2026-05-09 08:59 45.42281 12.44054 18413 ft 297 kts 291°
2026-05-09 08:59 45.43102 12.41173 18136 ft 296 kts 291°
2026-05-09 08:59 45.43961 12.38152 17848 ft 295 kts 291°
2026-05-09 09:00 45.44819 12.35134 17560 ft 294 kts 291°
2026-05-09 09:00 45.45667 12.32149 17281 ft 294 kts 291°
2026-05-09 09:00 45.46549 12.29039 16989 ft 293 kts 291°
2026-05-09 09:00 45.47403 12.26022 16704 ft 293 kts 291°
2026-05-09 09:01 45.48231 12.23093 16430 ft 293 kts 291°
2026-05-09 09:01 45.49052 12.20185 16156 ft 293 kts 291°
2026-05-09 09:01 45.49901 12.17179 15879 ft 293 kts 291°
2026-05-09 09:01 45.50753 12.14154 15598 ft 293 kts 291°
2026-05-09 09:02 45.51624 12.11061 15310 ft 293 kts 291°
2026-05-09 09:02 45.52489 12.07984 15022 ft 293 kts 291°
2026-05-09 09:02 45.53353 12.04907 14735 ft 291 kts 291°
2026-05-09 09:02 45.54211 12.01847 14441 ft 289 kts 291°
2026-05-09 09:03 45.55061 11.98813 14152 ft 287 kts 291°
2026-05-09 09:03 45.55911 11.95773 13862 ft 286 kts 291°
2026-05-09 09:03 45.56746 11.92783 13574 ft 285 kts 291°
2026-05-09 09:03 45.57584 11.89780 13289 ft 284 kts 291°
2026-05-09 09:04 45.58415 11.86799 13008 ft 284 kts 291°
2026-05-09 09:04 45.59246 11.83812 12726 ft 283 kts 291°
2026-05-09 09:04 45.60010 11.81062 12468 ft 283 kts 291°
2026-05-09 09:04 45.60768 11.78335 12211 ft 283 kts 291°
2026-05-09 09:05 45.61538 11.75557 12096 ft 277 kts 291°
2026-05-09 09:05 45.62295 11.72825 12085 ft 270 kts 291°
2026-05-09 09:05 45.63000 11.70279 12059 ft 264 kts 291°
2026-05-09 09:05 45.63712 11.67889 12056 ft 260 kts 301°
2026-05-09 09:06 45.64894 11.65986 12100 ft 256 kts 314°
2026-05-09 09:06 45.66160 11.64175 12084 ft 255 kts 314°
2026-05-09 09:06 45.67397 11.62408 12083 ft 254 kts 314°
2026-05-09 09:06 45.68654 11.60611 12093 ft 253 kts 314°
2026-05-09 09:07 45.69910 11.58813 12084 ft 253 kts 314°
2026-05-09 09:07 45.71149 11.57040 12098 ft 256 kts 314°
2026-05-09 09:07 45.72435 11.55198 12093 ft 263 kts 314°
2026-05-09 09:07 45.73736 11.53334 12099 ft 268 kts 314°
2026-05-09 09:08 45.75052 11.51447 12084 ft 272 kts 315°
2026-05-09 09:08 45.76382 11.49539 12106 ft 274 kts 315°
2026-05-09 09:08 45.77738 11.47592 12117 ft 277 kts 315°
2026-05-09 09:08 45.79104 11.45629 12112 ft 280 kts 315°
2026-05-09 09:09 45.80494 11.43631 12114 ft 281 kts 315°
2026-05-09 09:09 45.81860 11.41656 12111 ft 282 kts 314°
2026-05-09 09:09 45.83231 11.39645 12110 ft 283 kts 314°
2026-05-09 09:09 45.84598 11.37613 12106 ft 283 kts 313°
2026-05-09 09:10 45.85967 11.35549 12109 ft 284 kts 313°
2026-05-09 09:10 45.87315 11.33488 12111 ft 284 kts 312°
2026-05-09 09:10 45.88665 11.31396 12108 ft 284 kts 311°
2026-05-09 09:10 45.89993 11.29306 12106 ft 283 kts 311°
2026-05-09 09:11 45.91298 11.27220 12101 ft 283 kts 311°
2026-05-09 09:11 45.92603 11.25101 12091 ft 281 kts 310°
2026-05-09 09:11 45.93843 11.23070 12082 ft 264 kts 310°
2026-05-09 09:11 45.95017 11.21138 12089 ft 245 kts 310°
2026-05-09 09:12 45.96094 11.19362 12097 ft 226 kts 310°
2026-05-09 09:12 45.97073 11.17741 12096 ft 206 kts 310°
2026-05-09 09:12 45.97960 11.16263 12117 ft 185 kts 309°
2026-05-09 09:12 45.98775 11.14897 11844 ft 184 kts 309°
2026-05-09 09:13 45.99587 11.13523 11937 ft 180 kts 309°
2026-05-09 09:13 46.00486 11.11955 11929 ft 221 kts 308°
2026-05-09 09:13 46.01628 11.10443 11933 ft 229 kts 334°
2026-05-09 09:13 46.03169 11.10263 11938 ft 216 kts 17°
2026-05-09 09:14 46.04321 11.11451 11931 ft 198 kts 46°
2026-05-09 09:14 46.05263 11.12754 11926 ft 182 kts 34°
2026-05-09 09:14 46.06340 11.13621 11929 ft 174 kts 22°
2026-05-09 09:14 46.07498 11.14282 11951 ft 188 kts 18°
2026-05-09 09:15 46.08785 11.14908 11968 ft 202 kts 17°
2026-05-09 09:15 46.10176 11.15541 11979 ft 214 kts 16°
2026-05-09 09:15 46.11581 11.16296 11571 ft 218 kts 21°
2026-05-09 09:15 46.13013 11.17069 11090 ft 219 kts 18°
2026-05-09 09:16 46.14452 11.17765 10604 ft 220 kts 17°
2026-05-09 09:16 46.17366 11.19124 9507 ft 221 kts 17°
2026-05-09 09:16 46.18829 11.19801 8911 ft 221 kts 17°
2026-05-09 09:17 46.20278 11.20472 8323 ft 221 kts 17°
2026-05-09 09:17 46.21735 11.21146 7731 ft 220 kts 18°
2026-05-09 09:17 46.23174 11.21812 7201 ft 217 kts 18°
2026-05-09 09:17 46.24537 11.22461 7113 ft 193 kts 19°
2026-05-09 09:18 46.25750 11.23055 7104 ft 177 kts 19°
2026-05-09 09:18 46.26881 11.23610 7113 ft 169 kts 19°
2026-05-09 09:18 46.28007 11.24160 6989 ft 179 kts 19°
2026-05-09 09:18 46.29214 11.24752 6589 ft 185 kts 19°
2026-05-09 09:19 46.30438 11.25354 6187 ft 186 kts 19°
2026-05-09 09:19 46.31655 11.25952 5792 ft 186 kts 19°
2026-05-09 09:19 46.32888 11.26558 5393 ft 187 kts 19°
2026-05-09 09:19 46.34117 11.27163 5001 ft 187 kts 19°
2026-05-09 09:20 46.35338 11.27763 4605 ft 187 kts 19°
2026-05-09 09:20 46.36555 11.28362 4206 ft 180 kts 19°
2026-05-09 09:20 46.37684 11.28918 3783 ft 165 kts 19°
2026-05-09 09:20 46.38733 11.29435 3392 ft 152 kts 19°
2026-05-09 09:21 46.39647 11.30048 2884 ft 149 kts 38°
2026-05-09 09:21 46.40404 11.31096 2248 ft 147 kts 32°
2026-05-09 09:21 46.41322 11.31478 1907 ft 137 kts
2026-05-09 09:21 46.42258 11.31638 1689 ft 132 kts
2026-05-09 09:22 46.43102 11.31916 1501 ft 119 kts 13°
2026-05-09 09:22 46.43910 11.32101 1331 ft 114 kts
2026-05-09 09:22 46.44673 11.32278 1104 ft 109 kts
2026-05-09 09:22 46.45419 11.32477 833 ft 107 kts 10°
2026-05-09 09:23 46.46055 11.32637 823 ft 82 kts 13°
2026-05-09 09:23 46.46402 11.32730 824 ft 41 kts 10°
2026-05-09 09:23 46.46659 11.32802 825 ft 23 kts 19°
2026-05-09 09:23 46.46663 11.32920 826 ft 8 kts 142°
2026-05-09 09:24 46.46630 11.32952 826 ft 5 kts 80°